Dewpoint
34 35 35 36 42 43 45 46 47 48 49 49 49 48 48 49 50 49 49 48 47 49 51 51 51 51 51 51 51 51 50 50 51 51 48 49 50 52 52 53 55 55 55
34 36 41 42 43 44 45 47 48 48 48 48 49 50 49 49 49 46 44 44 44 47 47 48 49 49 49 49 50 50 50 50 50 48 48 45 47 48 48 51 52 52 53
35 38 40 39 41 44 45 43 42 42 41 43 44 44 44 43 42 42 42 42 43 45 45 43 44 44 46 47 48 49 49 49 49 49 49 46 44 46 48 47 48 48 48
34 37 35 39 42 40 39 39 40 40 40 40 41 40 40 39 40 41 41 40 41 42 43 42 42 42 44 43 44 44 47 48 47 49 49 49 49 45 43 47 46 48 48
32 33 36 39 39 39 37 37 38 39 39 38 39 39 37 39 39 38 37 38 39 40 41 40 40 40 42 42 41 42 43 46 47 47 48 47 47 47 45 44 45 46 47
32 34 37 38 38 38 37 37 36 36 37 37 36 36 35 35 35 36 36 37 38 39 39 38 39 39 39 40 40 41 41 42 44 45 46 47 47 47 46 44 43 44 46
33 34 36 37 37 36 35 35 36 36 35 35 35 34 35 34 35 35 36 35 37 37 37 36 37 37 38 38 39 39 39 40 41 42 44 46 47 48 47 47 46 45 46
33 33 35 35 34 34 33 33 34 34 35 34 34 34 34 36 36 35 35 36 36 37 36 35 36 35 35 36 36 37 38 38 39 39 41 42 44 47 48 47 46 45 44
34 35 35 35 35 34 34 33 34 33 33 34 34 33 33 34 34 34 35 35 35 35 35 35 34 34 34 34 34 35 36 37 38 39 39 40 42 44 46 47 47 46 42
33 32 32 33 34 35 34 34 34 33 32 33 33 32 32 33 34 34 33 33 34 34 34 35 34 34 34 34 33 34 35 35 36 37 38 37 39 40 42 44 45 46 46
29 29 29 28 30 32 34 35 35 34 33 33 33 33 34 33 33 33 33 33 33 34 34 34 34 35 34 33 33 32 32 34 35 35 37 37 39 39 40 41 43 44 45
28 28 28 28 28 28 29 30 30 31 33 33 33 34 34 34 34 33 33 33 32 33 32 33 33 33 33 34 33 32 32 32 32 33 36 38 37 37 38 39 40 41 43
28 28 27 23 20 19 21 24 28 30 31 30 30 31 31 31 31 32 33 34 33 33 32 31 31 31 32 32 33 32 31 31 32 33 35 37 35 37 36 37 39 40 41
27 26 17 14 14 14 15 16 18 20 22 22 24 26 28 27 28 31 33 33 33 32 31 31 30 31 30 31 31 30 30 31 31 34 36 35 36 35 35 36 37 38 39
21 15 14 14 14 15 17 18 20 20 21 22 25 25 26 27 28 31 31 33 34 33 32 30 29 29 29 28 29 30 30 31 31 33 34 35 36 37 37 35 35 38 39
12 12 13 15 16 17 19 20 21 22 23 24 24 25 26 26 27 28 29 30 30 30 29 28 28 29 25 30 35 33 32 33 33 33 34 35 37 37 38 37 37 36 35
12 14 16 17 18 19 21 22 22 23 24 24 24 25 24 26 26 26 28 28 27 27 27 26 25 24 23 30 32 35 32 33 33 32 32 33 33 36 35 36 36 36 37
14 16 17 19 20 21 23 23 23 24 24 23 24 22 21 22 23 25 26 26 23 23 21 21 21 22 22 31 32 35 31 31 32 32 32 32 32 33 34 34 34 34 35
15 17 19 20 21 21 21 21 21 20 19 20 19 19 20 19 19 21 24 23 21 21 22 22 23 23 23 30 31 33 29 29 29 30 30 32 33 34 35 34 33 34 35
16 17 17 18 20 20 20 19 19 18 17 15 16 17 17 17 17 21 24 23 22 22 23 22 22 25 23 30 33 32 28 27 27 28 30 34 33 35 36 34 33 33 34
17 17 18 19 19 20 20 19 19 18 16 16 17 17 16 17 19 20 20 19 22 22 22 20 20 19 21 21 29 31 26 26 25 25 26 29 33 34 36 37 33 33 33
19 19 19 19 19 20 21 19 18 17 16 16 16 16 15 15 15 17 18 18 19 20 19 18 18 18 18 25 28 29 30 29 25 25 25 26 32 34 36 34 34 33 35
16 17 18 18 18 20 21 18 15 14 14 14 13 14 14 14 15 17 18 18 18 17 17 15 16 17 18 19 26 28 28 31 28 26 28 33 34 34 35 35 35 35 33
17 17 17 16 15 14 14 13 12 11 12 13 14 16 17 18 17 17 18 18 17 17 16 16 17 18 18 19 20 21 23 26 26 26 27 27 30 33 32 32 31 30 30
15 15 15 15 15 14 11 12 14 16 17 17 18 18 18 18 19 20 20 19 19 19 18 19 21 21 22 22 26 26 24 25 25 27 27 27 27 28 28 28 28 28 28
13 14 13 13 12 14 15 17 19 19 18 18 19 20 20 20 21 22 22 26 28 30 30 30 28 25 28 31 32 32 33 31 31 29 28 27 28 27 27 27 28 28 28
Lifted_Index
11 12 13 13 12 12 11 11 11 11 11 11 10 10 10 9 9 10 10 11 11 11 11 11 11 11 10 10 10 10 10 10 10 10 10 9 8 7 6 5 6 6 6
12 12 12 12 12 11 11 11 11 11 11 11 11 11 10 10 11 11 12 12 12 12 12 12 12 12 12 11 11 11 10 10 10 10 10 10 9 8 7 6 6 6 6
11 11 11 11 11 11 11 11 11 12 12 12 12 12 12 12 12 13 14 14 14 14 14 14 14 14 14 13 12 12 11 11 11 10 10 10 10 10 9 8 7 6 5
11 11 11 11 12 12 11 12 12 12 13 13 13 13 13 13 14 14 15 15 15 15 15 15 15 15 15 15 14 14 13 13 12 11 11 10 10 10 10 10 9 8 7
11 11 12 12 12 12 12 12 12 12 13 13 13 13 13 14 14 15 15 16 15 15 15 15 16 16 16 16 15 15 15 14 14 13 12 11 11 11 10 10 10 10 9
11 12 12 12 12 12 12 12 13 13 13 13 13 14 14 14 15 15 15 15 15 15 15 15 15 16 16 16 16 17 16 16 15 15 14 13 12 11 11 11 11 11 10
11 12 12 12 12 12 12 12 13 13 13 13 14 14 15 15 15 15 15 15 15 15 15 15 15 16 16 17 17 17 17 17 17 16 16 15 14 13 12 11 11 10 10
11 11 12 12 12 12 12 12 13 13 13 13 14 15 15 16 16 16 15 15 14 14 15 15 16 16 17 17 17 17 17 17 17 17 17 16 15 14 13 12 11 11 10
11 11 11 11 12 12 12 12 13 13 14 14 14 15 15 16 16 15 15 14 14 14 15 15 16 16 16 17 17 17 17 17 17 17 17 16 16 15 14 13 12 11 11
11 11 11 11 11 12 12 13 13 14 14 14 14 14 14 14 14 14 14 14 14 14 14 15 15 16 16 16 16 16 16 16 16 16 16 16 15 15 14 13 12 11 11
10 10 10 11 11 11 12 13 13 14 14 14 14 14 14 13 13 13 13 13 14 14 14 14 15 15 15 15 15 15 15 15 15 15 15 15 14 14 14 13 12 11 11
10 10 10 11 11 12 12 13 13 13 14 14 14 14 14 14 14 14 13 13 13 13 13 13 14 14 14 14 14 14 14 14 14 14 14 14 14 14 14 14 13 12 11
10 10 11 11 11 12 12 13 13 13 14 14 15 16 16 16 15 15 14 13 12 12 12 12 12 12 13 13 13 13 13 13 13 13 13 13 13 14 14 14 13 12 11
10 11 11 12 12 13 13 13 13 14 15 15 16 17 17 16 16 15 13 12 11 11 11 11 11 12 12 12 13 13 13 13 12 12 12 12 12 13 13 13 13 12 12
11 12 13 13 14 14 14 14 15 15 16 16 16 16 16 15 15 14 13 12 11 10 10 10 11 11 11 12 12 12 11 11 11 11 11 11 11 12 12 12 12 12 11
12 13 14 14 15 15 15 16 16 16 17 16 16 15 15 15 14 13 12 11 10 10 10 10 10 10 10 10 10 9 9 9 9 10 10 10 10 10 10 11 11 11 11
14 15 15 15 16 16 16 17 17 16 16 16 15 15 14 14 13 13 12 11 10 10 9 9 9 9 9 8 7 6 6 7 8 8 8 9 9 9 9 10 10 10 11
16 16 16 16 16 16 16 16 16 15 15 15 14 14 14 13 12 11 10 10 9 9 8 8 8 7 7 6 5 4 4 5 6 6 7 7 7 7 7 8 9 9 9
16 16 16 16 16 16 15 15 14 14 13 13 13 13 12 12 11 10 8 8 8 7 7 6 6 6 5 4 3 2 3 3 4 5 5 5 5 4 4 5 6 7 7
16 16 16 16 15 15 14 14 13 13 12 12 12 11 11 10 9 8 7 7 7 6 6 5 5 5 4 3 2 1 2 2 3 3 3 3 3 2 2 2 3 4 4
16 16 16 15 15 14 13 13 12 12 12 11 11 10 9 9 8 8 7 7 7 6 6 5 5 4 4 3 2 1 1 2 2 3 3 2 2 1 1 1 1 2 2
16 15 15 15 14 13 12 12 12 11 11 10 9 9 8 8 8 8 8 7 7 6 6 6 5 5 4 3 3 2 2 1 2 2 2 2 2 1 1 0 1 1 1
15 14 14 13 13 12 12 11 11 10 10 9 9 8 9 8 8 8 8 7 7 6 6 6 5 5 4 4 3 3 2 2 2 2 2 2 2 2 1 1 1 1 1
13 13 13 12 12 12 11 10 10 9 9 9 9 9 9 9 8 8 8 7 7 6 6 5 5 5 5 4 4 3 3 2 2 2 3 3 3 3 3 2 2 2 3
12 12 12 11 11 10 10 9 9 9 9 9 9 9 9 9 8 8 8 7 7 6 5 5 5 5 5 4 3 3 3 2 2 3 3 3 4 4 4 4 4 4 4
12 12 11 11 10 9 9 8 8 9 9 9 9 9 9 9 8 8 8 7 6 6 5 5 5 5 4 4 3 3 2 2 2 3 3 4 4 4 4 4 5 5 5